Wattamolla Observation History
Time Wind Speed Temp Pressure Rel. Hum Rain
04/07:39am SSE 18-28 kts n/a n/a n/a n/a
04/07:30am S 19-26 kts n/a n/a n/a n/a
04/07:05am S 17-28 kts n/a n/a n/a n/a
04/07:00am S 16-24 kts n/a n/a n/a n/a
04/06:51am SSE 15-21 kts n/a n/a n/a n/a
04/06:30am WSW 8-12 kts n/a n/a n/a n/a
04/06:00am WSW 9-14 kts n/a n/a n/a n/a
04/05:30am S 15-24 kts n/a n/a n/a n/a
04/05:02am S 14-27 kts n/a n/a n/a n/a
04/05:00am SSW 12-22 kts n/a n/a n/a n/a
04/04:38am S 15-25 kts n/a n/a n/a n/a
04/04:30am S 16-25 kts n/a n/a n/a n/a
04/04:00am S 23-34 kts n/a n/a n/a n/a
04/03:40am S 17-27 kts n/a n/a n/a n/a
04/03:30am S 17-26 kts n/a n/a n/a n/a
04/03:03am S 16-26 kts n/a n/a n/a n/a
04/03:00am S 16-23 kts n/a n/a n/a n/a
04/02:30am S 18-29 kts n/a n/a n/a n/a
04/02:21am S 18-29 kts n/a n/a n/a n/a
04/02:00am S 17-25 kts n/a n/a n/a n/a
04/01:30am S 18-29 kts n/a n/a n/a n/a
04/01:05am S 15-25 kts n/a n/a n/a n/a
04/01:00am S 15-24 kts n/a n/a n/a n/a
04/12:35am S 27-37 kts n/a n/a n/a n/a
04/12:30am S 27-35 kts n/a n/a n/a n/a
04/12:00am S 30-38 kts n/a n/a n/a n/a
Time Wind Speed Temp Pressure Rel. Hum Rain
03/11:30pm S 27-37 kts n/a n/a n/a n/a
03/11:10pm S 28-38 kts n/a n/a n/a n/a
03/11:00pm S 30-37 kts n/a n/a n/a n/a
03/10:40pm S 21-35 kts n/a n/a n/a n/a
03/10:30pm S 15-25 kts n/a n/a n/a n/a
03/10:14pm S 16-28 kts n/a n/a n/a n/a
03/10:00pm S 15-22 kts n/a n/a n/a n/a
03/09:30pm S 16-29 kts n/a n/a n/a n/a
03/09:00pm S 21-31 kts n/a n/a n/a n/a
03/08:30pm S 20-31 kts n/a n/a n/a n/a
03/08:00pm S 19-31 kts n/a n/a n/a n/a
03/07:50pm S 20-32 kts n/a n/a n/a n/a
03/07:49pm S 20-32 kts n/a n/a n/a n/a
03/07:46pm S 20-32 kts n/a n/a n/a n/a
03/07:31pm S 22-32 kts n/a n/a n/a n/a
03/07:30pm S 21-28 kts n/a n/a n/a n/a
03/07:22pm S 28-37 kts n/a n/a n/a n/a
03/07:00pm SSE 32-39 kts n/a n/a n/a n/a
03/06:30pm SSE 29-37 kts n/a n/a n/a n/a
03/06:00pm S 29-36 kts n/a n/a n/a n/a
03/05:30pm S 28-32 kts n/a n/a n/a n/a
03/05:00pm SSE 27-34 kts n/a n/a n/a n/a
03/04:30pm SSE 28-34 kts n/a n/a n/a n/a
03/04:00pm S 28-33 kts n/a n/a n/a n/a
03/03:30pm SSE 27-32 kts n/a n/a n/a n/a
03/03:00pm SSE 31-41 kts n/a n/a n/a n/a
03/02:58pm SSE 31-41 kts n/a n/a n/a n/a
03/02:30pm SSE 29-37 kts n/a n/a n/a n/a
03/02:00pm SSE 31-39 kts n/a n/a n/a n/a
03/01:50pm S 27-37 kts n/a n/a n/a n/a
03/01:30pm S 23-30 kts n/a n/a n/a n/a
03/01:00pm S 25-29 kts n/a n/a n/a n/a
03/12:30pm S 26-32 kts n/a n/a n/a n/a
03/12:00pm S 22-33 kts n/a n/a n/a n/a
03/11:49am SSE 20-30 kts n/a n/a n/a n/a
03/11:30am S 22-29 kts n/a n/a n/a n/a
03/11:03am S 23-34 kts n/a n/a n/a n/a
03/11:00am S 18-28 kts n/a n/a n/a n/a
03/10:49am S 16-26 kts n/a n/a n/a n/a
03/10:30am SSW 12-17 kts n/a n/a n/a n/a
03/10:00am WSW 10-15 kts n/a n/a n/a n/a
03/09:30am SW 11-18 kts n/a n/a n/a n/a
03/09:00am WSW 12-20 kts n/a n/a n/a n/a
03/08:30am WSW 15-21 kts n/a n/a n/a n/a
03/08:00am WSW 15-20 kts n/a n/a n/a n/a
03/07:39am WSW 17-27 kts n/a n/a n/a n/a
03/07:30am WSW 18-27 kts n/a n/a n/a n/a
03/07:00am WSW 17-28 kts n/a n/a n/a n/a
03/06:45am W 17-27 kts n/a n/a n/a n/a
03/06:30am W 15-22 kts n/a n/a n/a n/a
03/06:00am WNW 14-20 kts n/a n/a n/a n/a
03/05:30am WNW 14-21 kts n/a n/a n/a n/a
03/05:06am W 17-27 kts n/a n/a n/a n/a
03/05:00am W 17-24 kts n/a n/a n/a n/a
03/04:30am W 18-26 kts n/a n/a n/a n/a
03/04:00am W 19-29 kts n/a n/a n/a n/a
03/03:34am W 17-27 kts n/a n/a n/a n/a
03/03:30am W 18-27 kts n/a n/a n/a n/a
03/03:03am W 17-27 kts n/a n/a n/a n/a
03/03:00am W 18-26 kts n/a n/a n/a n/a
03/02:32am W 16-27 kts n/a n/a n/a n/a
03/02:30am W 16-25 kts n/a n/a n/a n/a
03/02:15am W 16-26 kts n/a n/a n/a n/a
03/02:00am W 13-20 kts n/a n/a n/a n/a
03/01:30am WNW 14-20 kts n/a n/a n/a n/a
03/01:00am W 15-20 kts n/a n/a n/a n/a
03/12:30am W 16-24 kts n/a n/a n/a n/a
03/12:00am W 16-24 kts n/a n/a n/a n/a
Time Wind Speed Temp Pressure Rel. Hum Rain
02/11:34pm W 18-28 kts n/a n/a n/a n/a
02/11:30pm W 19-28 kts n/a n/a n/a n/a
02/11:20pm W 16-28 kts n/a n/a n/a n/a
02/11:00pm WNW 17-26 kts n/a n/a n/a n/a
02/10:43pm WNW 16-26 kts n/a n/a n/a n/a
02/10:30pm WNW 16-23 kts n/a n/a n/a n/a
02/10:00pm W 17-27 kts n/a n/a n/a n/a
02/09:31pm W 16-26 kts n/a n/a n/a n/a
02/09:30pm WNW 16-23 kts n/a n/a n/a n/a
02/09:00pm WNW 15-24 kts n/a n/a n/a n/a
02/08:34pm WNW 15-26 kts n/a n/a n/a n/a
02/08:30pm W 15-23 kts n/a n/a n/a n/a
02/08:07pm W 16-30 kts n/a n/a n/a n/a
02/08:00pm W 16-22 kts n/a n/a n/a n/a
02/07:30pm W 16-27 kts n/a n/a n/a n/a
02/07:01pm W 16-28 kts n/a n/a n/a n/a
02/07:00pm W 15-24 kts n/a n/a n/a n/a
02/06:48pm W 17-27 kts n/a n/a n/a n/a
02/06:30pm W 16-25 kts n/a n/a n/a n/a
02/06:03pm W 15-25 kts n/a n/a n/a n/a
02/06:00pm W 15-22 kts n/a n/a n/a n/a
02/05:30pm W 11-19 kts n/a n/a n/a n/a
02/05:00pm W 11-18 kts n/a n/a n/a n/a
02/04:30pm WSW 12-17 kts n/a n/a n/a n/a
02/04:00pm WSW 10-17 kts n/a n/a n/a n/a
02/03:30pm WSW 11-17 kts n/a n/a n/a n/a
02/03:00pm SW 10-15 kts n/a n/a n/a n/a
02/02:30pm S 19-25 kts n/a n/a n/a n/a
02/02:00pm S 15-22 kts n/a n/a n/a n/a
02/01:39pm S 20-30 kts n/a n/a n/a n/a
02/01:30pm S 21-29 kts n/a n/a n/a n/a
02/01:23pm S 17-28 kts n/a n/a n/a n/a
02/01:08pm S 20-29 kts n/a n/a n/a n/a
02/01:00pm S 21-29 kts n/a n/a n/a n/a
02/12:53pm S 15-28 kts n/a n/a n/a n/a
02/12:30pm SSW 13-20 kts n/a n/a n/a n/a
02/12:00pm SW 15-22 kts n/a n/a n/a n/a
02/11:30am SW 14-25 kts n/a n/a n/a n/a
02/11:23am SW 15-25 kts n/a n/a n/a n/a
02/11:00am WSW 14-23 kts n/a n/a n/a n/a
02/10:30am W 14-22 kts n/a n/a n/a n/a
02/10:00am W 14-21 kts n/a n/a n/a n/a
02/09:30am W 13-21 kts n/a n/a n/a n/a
02/09:00am W 15-21 kts n/a n/a n/a n/a
02/08:30am W 13-19 kts n/a n/a n/a n/a
02/08:00am W 14-21 kts n/a n/a n/a n/a
02/07:30am W 13-17 kts n/a n/a n/a n/a
02/07:00am W 12-15 kts n/a n/a n/a n/a
02/06:30am W 13-17 kts n/a n/a n/a n/a
02/06:00am W 15-21 kts n/a n/a n/a n/a
02/05:30am W 15-21 kts n/a n/a n/a n/a
02/05:07am W 15-25 kts n/a n/a n/a n/a
02/05:00am W 14-20 kts n/a n/a n/a n/a
02/04:30am W 15-21 kts n/a n/a n/a n/a
02/04:00am W 17-29 kts n/a n/a n/a n/a
02/03:30am WNW 17-28 kts n/a n/a n/a n/a
02/03:00am W 16-29 kts n/a n/a n/a n/a
02/02:34am WNW 15-27 kts n/a n/a n/a n/a
02/02:30am WNW 14-22 kts n/a n/a n/a n/a
02/02:05am WNW 16-26 kts n/a n/a n/a n/a
02/02:00am WNW 17-26 kts n/a n/a n/a n/a
02/01:30am WNW 15-22 kts n/a n/a n/a n/a
02/01:00am NW 15-21 kts n/a n/a n/a n/a
02/12:30am WNW 12-17 kts n/a n/a n/a n/a
02/12:00am W 7-13 kts n/a n/a n/a n/a